This is the latest recevied weather packets stored in our database for station/object K0VSC-1. If no packets are shown the sender has not sent any weather packets the latest 10 day(s).
| Time | Temp. | Humidity | Pressure | Rain* | Wind** | Luminosity | Snow |
|---|---|---|---|---|---|---|---|
| 1777642996 | 3.33° C | 61% | 1020.5 hPa | 0 mm | - | 404 W/m² | - |
| 1777642696 | 3.33° C | 65% | 1020.5 hPa | 0 mm | - | 313 W/m² | - |
| 1777642396 | 3.33° C | 66% | 1020.4 hPa | 0 mm | - | 221 W/m² | - |
| 1777642096 | 2.78° C | 67% | 1020.5 hPa | 0 mm | - | 250 W/m² | - |
| 1777641796 | 2.78° C | 66% | 1020.4 hPa | 0 mm | - | 221 W/m² | - |
| 1777641496 | 2.78° C | 68% | 1020.4 hPa | 0 mm | - | 190 W/m² | - |
| 1777641196 | 2.22° C | 68% | 1020.4 hPa | 0 mm | - | 174 W/m² | - |
| 1777640896 | 2.22° C | 68% | 1020.3 hPa | 0 mm | - | 179 W/m² | - |
| 1777640596 | 2.22° C | 70% | 1020.2 hPa | 0 mm | - | 141 W/m² | - |
| 1777640296 | 1.67° C | 71% | 1020.3 hPa | 0 mm | - | 125 W/m² | - |
| 1777639996 | 1.67° C | 72% | 1020.1 hPa | 0 mm | - | 116 W/m² | - |
| 1777639696 | 1.67° C | 71% | 1020.1 hPa | 0 mm | - | 111 W/m² | - |
| 1777639526 | 1.67° C | 70% | 1020 hPa | 0 mm | - | 95 W/m² | - |
| 1777639396 | 1.67° C | 70% | 1020 hPa | 0 mm | - | 95 W/m² | - |
| 1777639096 | 1.67° C | 71% | 1019.9 hPa | 0 mm | - | 88 W/m² | - |
| 1777638796 | 1.67° C | 71% | 1019.8 hPa | 0 mm | - | 88 W/m² | - |
| 1777638496 | 1.11° C | 70% | 1019.8 hPa | 0 mm | - | 79 W/m² | - |
| 1777638196 | 1.11° C | 70% | 1019.8 hPa | 0 mm | - | 72 W/m² | - |
| 1777637896 | 1.11° C | 70% | 1019.7 hPa | 0 mm | - | 65 W/m² | - |
| 1777637596 | 1.11° C | 70% | 1019.8 hPa | 0 mm | - | 86 W/m² | - |
| 1777637296 | 1.11° C | 70% | 1019.7 hPa | 0 mm | - | 51 W/m² | - |
| 1777636996 | 1.11° C | 70% | 1019.6 hPa | 0 mm | - | 49 W/m² | - |
| 1777636696 | 1.11° C | 70% | 1019.6 hPa | 0 mm | - | 42 W/m² | - |
| 1777636396 | 1.11° C | 70% | 1019.5 hPa | 0 mm | - | 35 W/m² | - |
| 1777636096 | 1.11° C | 70% | 1019.5 hPa | 0 mm | - | 26 W/m² | - |
* Rain latest hour (hover to see other rain measurements)
** Current wind speed in m/s (hover to see current wind gust speed)